| time (UTC) | temp C | wind direction | speed KPH | gust KPH | rain 1hr cm | rain 24hr cm | rain mn cm | humidity % | barometer mb |
| 20260507000019 | 13 | 257 | 3.2 | 12.9 | 0.03 | 1.52 | 1.52 | 95 | 1002.3 |
| 20260506234516 | 14 | 239 | 3.2 | 11.3 | 0.05 | 1.52 | 1.52 | 96 | 1002.3 |
| 20260506233013 | 14 | 259 | 1.6 | 14.5 | 0.05 | 1.50 | 1.50 | 96 | 1002.2 |
| 20260506231528 | 14 | 219 | 6.4 | 16.1 | 0.08 | 1.50 | 1.50 | 96 | 1002.3 |
| 20260506230011 | 14 | 269 | 6.4 | 14.5 | 0.10 | 1.50 | 1.50 | 96 | 1002.3 |
| 20260506224509 | 14 | 257 | 1.6 | 6.4 | 0.15 | 1.57 | 1.45 | 96 | 1002.0 |
| 20260506223007 | 14 | 232 | 0.0 | 8.0 | 0.18 | 1.55 | 1.42 | 96 | 1002.2 |
| 20260506221506 | 14 | 249 | 1.6 | 6.4 | 0.25 | 1.52 | 1.42 | 96 | 1002.4 |
| 20260506220004 | 14 | 146 | 0.0 | 6.4 | 0.36 | 1.50 | 1.40 | 96 | 1002.5 |
| 20260506214503 | 14 | 242 | 0.0 | 3.2 | 0.48 | 1.50 | 1.32 | 95 | 1002.6 |
| 20260506213140 | 14 | 242 | 0.0 | 3.2 | 0.53 | 1.42 | 1.27 | 95 | 1002.8 |
| 20260506211623 | 14 | 242 | 1.6 | 4.8 | 0.43 | 1.35 | 1.17 | 95 | 1003.0 |
| 20260506204559 | 15 | 250 | 3.2 | 12.9 | 0.23 | 1.04 | 0.86 | 95 | 1003.3 |
| 20260506203054 | 15 | 147 | 0.0 | 4.8 | 0.18 | 0.91 | 0.71 | 95 | 1003.4 |
| 20260506201601 | 15 | 209 | 3.2 | 9.7 | 0.23 | 0.91 | 0.71 | 95 | 1003.6 |
| 20260506200059 | 15 | 205 | 0.0 | 11.3 | 0.20 | 0.86 | 0.69 | 95 | 1003.6 |
| 20260506194603 | 15 | 183 | 4.8 | 11.3 | 0.23 | 0.81 | 0.64 | 95 | 1003.8 |
| 20260506193050 | 15 | 205 | 1.6 | 6.4 | 0.20 | 0.71 | 0.56 | 95 | 1003.9 |
| 20260506191551 | 15 | 219 | 0.0 | 11.3 | 0.20 | 0.69 | 0.51 | 95 | 1004.1 |
| 20260506190047 | 15 | 219 | 1.6 | 6.4 | 0.23 | 0.64 | 0.46 | 95 | 1004.1 |
| 20260506184553 | 15 | 290 | 0.0 | 3.2 | 0.25 | 0.58 | 0.41 | 95 | 1004.3 |
| 20260506183058 | 15 | 290 | 0.0 | 1.6 | 0.28 | 0.53 | 0.36 | 95 | 1004.4 |
| 20260506181544 | 15 | 290 | 0.0 | 3.2 | 0.25 | 0.48 | 0.30 | 94 | 1004.7 |
| 20260506180048 | 15 | 292 | 0.0 | 3.2 | 0.20 | 0.41 | 0.23 | 94 | 1004.8 |
| 20260506174544 | 15 | 292 | 0.0 | 1.6 | 0.13 | 0.33 | 0.15 | 94 | 1005.1 |
| 20260506173049 | 15 | 292 | 0.0 | 3.2 | 0.05 | 0.25 | 0.08 | 92 | 1005.1 |
| 20260506171542 | 15 | 292 | 0.0 | 1.6 | 0.05 | 0.23 | 0.05 | 91 | 1004.9 |
| 20260506170100 | 16 | 292 | 0.0 | 0.0 | 0.03 | 0.20 | 0.03 | 87 | 1005.0 |
| 20260506164538 | 16 | 292 | 0.0 | 3.2 | 0.03 | 0.20 | 0.03 | 84 | 1005.1 |
| 20260506163039 | 16 | 292 | 0.0 | 4.8 | 0.03 | 0.20 | 0.03 | 86 | 1005.2 |
| 20260506161534 | 15 | 254 | 0.0 | 4.8 | 0.00 | 0.18 | 0.00 | 88 | 1005.6 |
| 20260506160034 | 15 | 142 | 0.0 | 4.8 | 0.00 | 0.18 | 0.00 | 86 | 1006.4 |
| 20260506154533 | 15 | 161 | 3.2 | 9.7 | 0.00 | 0.18 | 0.00 | 84 | 1006.5 |
| 20260506153029 | 16 | 250 | 0.0 | 4.8 | 0.00 | 0.18 | 0.00 | 84 | 1006.7 |
| 20260506151532 | 15 | 248 | 0.0 | 9.7 | 0.00 | 0.18 | 0.00 | 83 | 1006.6 |
| 20260506150028 | 15 | 248 | 0.0 | 8.0 | 0.00 | 0.18 | 0.00 | 83 | 1006.6 |
| 20260506144527 | 15 | 242 | 0.0 | 11.3 | 0.00 | 0.18 | 0.00 | 83 | 1006.7 |
| 20260506143032 | 15 | 156 | 1.6 | 11.3 | 0.00 | 0.18 | 0.00 | 82 | 1006.6 |
| 20260506141526 | 15 | 231 | 3.2 | 8.0 | 0.00 | 0.18 | 0.00 | 82 | 1006.6 |
| 20260506140026 | 15 | 197 | 6.4 | 9.7 | 0.00 | 0.18 | 0.00 | 83 | 1006.5 |
| 20260506134525 | 15 | 194 | 3.2 | 8.0 | 0.00 | 0.18 | 0.00 | 82 | 1006.8 |
| 20260506133024 | 15 | 153 | 1.6 | 8.0 | 0.00 | 0.18 | 0.00 | 82 | 1006.9 |
| 20260506131528 | 15 | 194 | 1.6 | 8.0 | 0.00 | 0.18 | 0.00 | 82 | 1007.0 |
| 20260506130022 | 15 | 211 | 0.0 | 4.8 | 0.00 | 0.18 | 0.00 | 84 | 1006.9 |
| 20260506124523 | 15 | 252 | 0.0 | 0.0 | 0.00 | 0.18 | 0.00 | 84 | 1007.0 |
| 20260506123027 | 15 | 251 | 0.0 | 3.2 | 0.00 | 0.18 | 0.00 | 87 | 1006.9 |
| 20260506121523 | 15 | 251 | 0.0 | 8.0 | 0.00 | 0.18 | 0.00 | 85 | 1007.1 |
| 20260506120015 | 13 | 249 | 0.0 | 4.8 | 0.00 | 0.18 | 0.00 | 90 | 1007.3 |
| 20260506114514 | 12 | 270 | 0.0 | 4.8 | 0.00 | 0.18 | 0.00 | 95 | 1007.3 |
| 20260506113025 | 12 | 271 | 0.0 | 1.6 | 0.00 | 0.18 | 0.00 | 96 | 1007.4 |
| 20260506111514 | 12 | 271 | 0.0 | 3.2 | 0.00 | 0.18 | 0.00 | 95 | 1007.4 |
| 20260506110014 | 11 | 271 | 0.0 | 3.2 | 0.00 | 0.18 | 0.00 | 95 | 1007.3 |
| 20260506104512 | 11 | 271 | 0.0 | 1.6 | 0.00 | 0.18 | 0.00 | 95 | 1007.5 |
| 20260506103011 | 11 | 271 | 0.0 | 3.2 | 0.00 | 0.18 | 0.00 | 95 | 1007.3 |
| 20260506101509 | 11 | 271 | 0.0 | 3.2 | 0.00 | 0.18 | 0.00 | 95 | 1007.2 |
| 20260506100009 | 11 | 271 | 0.0 | 1.6 | 0.00 | 0.18 | 0.00 | 95 | 1007.0 |
| 20260506094506 | 11 | 230 | 1.6 | 3.2 | 0.00 | 0.18 | 0.00 | 95 | 1006.9 |
| 20260506093004 | 11 | 230 | 0.0 | 3.2 | 0.00 | 0.18 | 0.00 | 95 | 1006.8 |
| 20260506091509 | 12 | 230 | 0.0 | 0.0 | 0.00 | 0.18 | 0.00 | 95 | 1006.9 |
| 20260506090004 | 12 | 230 | 0.0 | 0.0 | 0.00 | 0.18 | 0.00 | 95 | 1007.1 |
| 20260506084616 | 12 | 230 | 0.0 | 3.2 | 0.00 | 0.18 | 0.00 | 94 | 1007.0 |
| 20260506083100 | 12 | 195 | 0.0 | 1.6 | 0.00 | 0.18 | 0.00 | 94 | 1006.9 |
| 20260506081604 | 12 | 196 | 0.0 | 3.2 | 0.00 | 0.18 | 0.00 | 94 | 1006.9 |
| 20260506073100 | 13 | 250 | 0.0 | 1.6 | 0.00 | 0.18 | 0.00 | 92 | 1006.8 |
| 20260506071555 | 13 | 250 | 0.0 | 1.6 | 0.00 | 0.18 | 0.00 | 91 | 1006.6 |
| 20260506061557 | 13 | 271 | 0.0 | 3.2 | 0.00 | 0.18 | 0.00 | 94 | 1006.5 |
| 20260506043041 | 13 | 276 | 0.0 | 0.0 | 0.00 | 0.18 | 0.00 | 94 | 1006.4 |
| 20260506041536 | 13 | 276 | 0.0 | 0.0 | 0.00 | 0.18 | 0.00 | 94 | 1006.8 |
| 20260506040033 | 13 | 276 | 0.0 | 0.0 | 0.00 | 0.18 | 0.00 | 93 | 1006.7 |
| 20260506034535 | 13 | 276 | 0.0 | 0.0 | 0.00 | 0.18 | 0.18 | 93 | 1006.7 |
| 20260506033035 | 13 | 276 | 0.0 | 0.0 | 0.00 | 0.18 | 0.18 | 93 | 1006.9 |
| 20260506031543 | 13 | 276 | 0.0 | 4.8 | 0.00 | 0.18 | 0.18 | 92 | 1006.8 |
| 20260506030031 | 13 | 276 | 0.0 | 3.2 | 0.00 | 0.18 | 0.18 | 91 | 1006.7 |
| 20260506024540 | 14 | 224 | 0.0 | 3.2 | 0.00 | 0.18 | 0.18 | 89 | 1006.7 |
| 20260506023030 | 15 | 224 | 0.0 | 0.0 | 0.00 | 0.18 | 0.18 | 87 | 1006.7 |
| 20260506021532 | 15 | 224 | 0.0 | 0.0 | 0.00 | 0.18 | 0.18 | 86 | 1006.5 |
| 20260506020030 | 15 | 224 | 0.0 | 0.0 | 0.00 | 0.18 | 0.18 | 84 | 1006.4 |
| 20260506014531 | 15 | 225 | 1.6 | 8.0 | 0.00 | 0.18 | 0.18 | 84 | 1006.7 |
| 20260506013028 | 15 | 220 | 1.6 | 8.0 | 0.00 | 0.18 | 0.18 | 86 | 1006.8 |
| 20260506011534 | 15 | 144 | 3.2 | 6.4 | 0.00 | 0.18 | 0.18 | 84 | 1006.3 |
| 20260506010028 | 16 | 161 | 0.0 | 6.4 | 0.00 | 0.18 | 0.18 | 81 | 1006.1 |
| 20260506004527 | 16 | 263 | 0.0 | 4.8 | 0.00 | 0.18 | 0.18 | 77 | 1006.2 |
| 20260506003027 | 15 | 169 | 3.2 | 8.0 | 0.00 | 0.18 | 0.18 | 81 | 1005.9 |
| 20260506001526 | 16 | 229 | 0.0 | 6.4 | 0.00 | 0.18 | 0.18 | 83 | 1005.7 |